Time,TemperatureF,DewpointF,PressureIn,WindDirection,WindDirectionDegrees,WindSpeedMPH,WindSpeedGustMPH,Humidity,HourlyPrecipIn,Conditions,Clouds,dailyrainin,SoftwareType,DateUTC
2013-07-01 00:03:00,53.4,47.5,30.15,WNW,292,0.0,0.0,80,0.00,,,-99.99,open3600,2013-06-30 22:03:00,
2013-07-01 00:18:00,53.4,47.5,30.15,WNW,292,0.0,0.0,80,0.00,,,-99.99,open3600,2013-06-30 22:18:00,
2013-07-01 00:51:00,53.4,47.1,30.14,WNW,292,0.0,0.0,79,0.00,,,-99.99,open3600,2013-06-30 22:51:00,
2013-07-01 01:07:00,53.4,47.1,30.14,WNW,292,0.0,0.0,79,0.00,,,-99.99,open3600,2013-06-30 23:07:00,
2013-07-01 01:22:00,53.4,47.1,30.14,WNW,292,0.0,0.0,79,0.00,,,-99.99,open3600,2013-06-30 23:22:00,
2013-07-01 01:38:00,53.4,46.8,30.14,West,270,0.0,0.0,78,0.00,,,-99.99,open3600,2013-06-30 23:38:00,
2013-07-01 01:53:00,53.6,46.9,30.14,WSW,248,0.0,0.0,78,0.00,,,-99.99,open3600,2013-06-30 23:53:00,
2013-07-01 02:09:00,53.2,46.9,30.14,WSW,248,0.0,0.0,79,0.00,,,-99.99,open3600,2013-07-01 00:09:00,
2013-07-01 02:25:00,52.5,46.6,30.14,WSW,248,0.0,0.0,80,0.00,,,-99.99,open3600,2013-07-01 00:25:00,
2013-07-01 02:40:00,52.0,46.4,30.14,SW,225,0.0,0.0,81,0.00,,,-99.99,open3600,2013-07-01 00:40:00,
2013-07-01 02:56:00,51.4,45.9,30.13,SW,225,0.0,0.0,81,0.00,,,-99.99,open3600,2013-07-01 00:56:00,
2013-07-01 03:11:00,51.1,45.9,30.13,SW,225,0.0,0.0,82,0.00,,,-99.99,open3600,2013-07-01 01:11:00,
2013-07-01 03:28:00,50.7,45.5,30.13,SW,225,0.0,0.0,82,0.00,,,-99.99,open3600,2013-07-01 01:28:00,
2013-07-01 03:43:00,50.5,45.3,30.13,SW,225,0.0,0.0,82,0.00,,,-99.99,open3600,2013-07-01 01:43:00,
2013-07-01 04:16:00,49.6,44.8,30.12,SW,225,0.0,0.0,83,0.00,,,-99.99,open3600,2013-07-01 02:16:00,
2013-07-01 04:32:00,49.3,44.6,30.13,SW,225,0.0,0.0,84,0.00,,,-99.99,open3600,2013-07-01 02:32:00,
2013-07-01 04:48:00,48.7,44.1,30.12,SW,225,0.0,0.0,84,0.00,,,-99.99,open3600,2013-07-01 02:48:00,
2013-07-01 05:04:00,48.0,43.3,30.12,SW,225,0.0,0.0,84,0.00,,,-99.99,open3600,2013-07-01 03:04:00,
2013-07-01 05:20:00,47.8,43.5,30.12,SW,225,0.0,0.0,85,0.00,,,-99.99,open3600,2013-07-01 03:20:00,
2013-07-01 05:37:00,47.7,43.7,30.12,SW,225,0.0,0.0,86,0.00,,,-99.99,open3600,2013-07-01 03:37:00,
2013-07-01 05:53:00,48.0,44.1,30.12,SW,225,0.0,0.0,86,0.00,,,-99.99,open3600,2013-07-01 03:53:00,
2013-07-01 06:09:00,48.2,44.6,30.11,SW,225,0.0,0.0,87,0.00,,,-99.99,open3600,2013-07-01 04:09:00,
2013-07-01 06:24:00,48.7,45.1,30.11,SW,225,0.0,0.0,87,0.00,,,-99.99,open3600,2013-07-01 04:24:00,
2013-07-01 06:40:00,49.6,45.9,30.11,SW,225,0.0,0.0,87,0.00,,,-99.99,open3600,2013-07-01 04:40:00,
2013-07-01 06:56:00,50.5,46.8,30.11,SW,225,0.0,0.0,87,0.00,,,-99.99,open3600,2013-07-01 04:56:00,
2013-07-01 07:11:00,51.1,47.3,30.11,SW,225,0.0,0.0,87,0.00,,,-99.99,open3600,2013-07-01 05:11:00,
2013-07-01 07:27:00,52.0,47.8,30.11,SW,225,0.0,0.0,86,0.00,,,-99.99,open3600,2013-07-01 05:27:00,
2013-07-01 08:00:00,54.1,48.7,30.12,WSW,248,0.0,0.0,82,0.00,,,-99.99,open3600,2013-07-01 06:00:00,
2013-07-01 08:15:00,55.2,49.1,30.12,SSW,202,0.3,0.0,80,0.00,,,-99.99,open3600,2013-07-01 06:15:00,
2013-07-01 08:31:00,56.1,49.6,30.11,WSW,248,0.7,0.0,79,0.00,,,-99.99,open3600,2013-07-01 06:31:00,
2013-07-01 08:46:00,56.8,50.0,30.11,SW,225,0.9,0.0,78,0.00,,,-99.99,open3600,2013-07-01 06:46:00,
2013-07-01 09:02:00,57.9,51.1,30.11,SSE,158,0.0,0.0,78,0.00,,,-99.99,open3600,2013-07-01 07:02:00,
2013-07-01 09:18:00,58.8,51.6,30.11,West,270,0.0,0.0,77,0.00,,,-99.99,open3600,2013-07-01 07:18:00,
2013-07-01 09:33:00,59.5,52.0,30.11,SSW,202,0.3,0.0,76,0.00,,,-99.99,open3600,2013-07-01 07:33:00,
2013-07-01 09:49:00,60.4,52.5,30.11,SSW,202,0.1,0.0,75,0.00,,,-99.99,open3600,2013-07-01 07:49:00,
2013-07-01 10:22:00,61.9,54.0,30.11,SW,225,0.0,0.0,75,0.00,,,-99.99,open3600,2013-07-01 08:22:00,
2013-07-01 10:38:00,62.8,54.7,30.11,West,270,0.0,0.0,75,0.00,,,-99.99,open3600,2013-07-01 08:38:00,
2013-07-01 10:54:00,63.7,54.1,30.11,SSW,202,0.0,0.0,71,0.00,,,-99.99,open3600,2013-07-01 08:54:00,
2013-07-01 11:09:00,64.2,54.3,30.11,WNW,292,0.2,0.0,70,0.00,,,-99.99,open3600,2013-07-01 09:09:00,
2013-07-01 11:25:00,64.9,53.8,30.11,SW,225,0.3,10.0,67,0.00,,,-99.99,open3600,2013-07-01 09:25:00,
2013-07-01 11:40:00,64.6,54.1,30.11,WNW,292,0.9,8.0,69,0.00,,,-99.99,open3600,2013-07-01 09:40:00,
2013-07-01 11:56:00,65.8,55.0,30.11,WSW,248,0.0,0.0,68,0.00,,,-99.99,open3600,2013-07-01 09:56:00,
2013-07-01 12:12:00,66.0,54.7,30.10,WSW,248,0.6,9.0,67,0.00,,,-99.99,open3600,2013-07-01 10:12:00,
2013-07-01 12:27:00,66.0,54.7,30.10,South,180,0.2,0.0,67,0.00,,,-99.99,open3600,2013-07-01 10:27:00,
2013-07-01 12:43:00,66.4,56.3,30.10,WSW,248,0.0,0.0,70,0.00,,,-99.99,open3600,2013-07-01 10:43:00,
2013-07-01 12:59:00,67.6,55.4,30.09,SSW,202,0.0,0.0,65,0.00,,,-99.99,open3600,2013-07-01 10:59:00,
2013-07-01 13:14:00,66.7,53.8,30.09,SW,225,0.3,0.0,63,0.00,,,-99.99,open3600,2013-07-01 11:14:00,
2013-07-01 13:24:00,68.4,55.8,30.09,SW,225,0.5,0.0,64,0.00,,,-99.99,open3600,2013-07-01 11:24:00,
2013-07-01 13:40:00,68.0,55.4,30.09,West,270,0.0,0.0,64,0.00,,,-99.99,open3600,2013-07-01 11:40:00,
2013-07-01 13:56:00,69.1,54.7,30.09,WNW,292,0.9,0.0,60,0.00,,,-99.99,open3600,2013-07-01 11:56:00,
2013-07-01 14:12:00,70.0,53.6,30.08,SW,225,1.1,0.0,56,0.00,,,-99.99,open3600,2013-07-01 12:12:00,
2013-07-01 14:27:00,70.5,54.5,30.08,WSW,248,1.7,9.0,57,0.00,,,-99.99,open3600,2013-07-01 12:27:00,
2013-07-01 14:45:00,70.0,53.1,30.08,SW,225,1.2,0.0,55,0.00,,,-99.99,open3600,2013-07-01 12:45:00,
2013-07-01 15:18:00,72.1,53.6,30.08,NW,315,1.3,0.0,52,0.00,,,-99.99,open3600,2013-07-01 13:18:00,
2013-07-01 15:33:00,71.8,54.7,30.08,WSW,248,0.3,0.0,55,0.00,,,-99.99,open3600,2013-07-01 13:33:00,
2013-07-01 15:49:00,70.2,52.7,30.08,South,180,0.4,0.0,54,0.00,,,-99.99,open3600,2013-07-01 13:49:00,
2013-07-01 16:05:00,71.2,53.8,30.07,SSW,202,0.2,0.0,54,0.00,,,-99.99,open3600,2013-07-01 14:05:00,
2013-07-01 16:20:00,72.0,54.9,30.07,WNW,292,0.0,0.0,55,0.00,,,-99.99,open3600,2013-07-01 14:20:00,
2013-07-01 16:38:00,72.1,54.5,30.07,SW,225,0.2,0.0,54,0.00,,,-99.99,open3600,2013-07-01 14:38:00,
2013-07-01 16:55:00,71.1,54.5,30.06,SW,225,0.0,0.0,56,0.00,,,-99.99,open3600,2013-07-01 14:55:00,
2013-07-01 17:28:00,70.9,54.9,30.06,SW,225,0.0,0.0,57,0.00,,,-99.99,open3600,2013-07-01 15:28:00,
2013-07-01 17:44:00,71.6,54.5,30.06,SSW,202,0.4,0.0,55,0.00,,,-99.99,open3600,2013-07-01 15:44:00,
2013-07-01 18:00:00,71.1,55.0,30.06,South,180,0.0,0.0,57,0.00,,,-99.99,open3600,2013-07-01 16:00:00,
2013-07-01 18:15:00,70.3,55.8,30.06,WSW,248,0.0,0.0,60,0.00,,,-99.99,open3600,2013-07-01 16:15:00,
2013-07-01 18:31:00,70.0,55.0,30.06,SSW,202,0.0,0.0,59,0.00,,,-99.99,open3600,2013-07-01 16:31:00,
2013-07-01 18:46:00,69.3,55.2,30.05,SW,225,0.0,0.0,61,0.00,,,-99.99,open3600,2013-07-01 16:46:00,
2013-07-01 19:02:00,69.1,54.1,30.05,SW,225,0.0,0.0,59,0.00,,,-99.99,open3600,2013-07-01 17:02:00,
2013-07-01 19:18:00,68.4,54.3,30.05,SSW,202,0.0,0.0,61,0.00,,,-99.99,open3600,2013-07-01 17:18:00,
2013-07-01 19:34:00,67.8,54.3,30.05,SSW,202,0.0,0.0,62,0.00,,,-99.99,open3600,2013-07-01 17:34:00,
2013-07-01 20:07:00,67.1,53.2,30.05,SSW,202,0.0,0.0,61,0.00,,,-99.99,open3600,2013-07-01 18:07:00,
2013-07-01 20:24:00,66.0,53.1,30.05,SSW,202,0.0,0.0,63,0.00,,,-99.99,open3600,2013-07-01 18:24:00,
2013-07-01 20:39:00,65.1,52.7,30.05,SSW,202,0.0,0.0,64,0.00,,,-99.99,open3600,2013-07-01 18:39:00,
2013-07-01 20:57:00,64.6,53.1,30.05,SSW,202,0.0,0.0,66,0.00,,,-99.99,open3600,2013-07-01 18:57:00,
2013-07-01 21:12:00,63.5,52.7,30.05,SSW,202,0.0,0.0,68,0.00,,,-99.99,open3600,2013-07-01 19:12:00,
2013-07-01 21:28:00,62.8,52.9,30.05,SSW,202,0.0,0.0,70,0.00,,,-99.99,open3600,2013-07-01 19:28:00,
2013-07-01 21:44:00,61.5,52.9,30.06,SSW,202,0.0,0.0,73,0.00,,,-99.99,open3600,2013-07-01 19:44:00,
2013-07-01 21:59:00,60.8,52.9,30.06,SSW,202,0.0,0.0,75,0.00,,,-99.99,open3600,2013-07-01 19:59:00,
2013-07-01 22:15:00,60.1,52.5,30.06,SSW,202,0.0,0.0,76,0.00,,,-99.99,open3600,2013-07-01 20:15:00,
2013-07-01 22:30:00,59.2,52.0,30.06,SSW,202,0.0,0.0,77,0.00,,,-99.99,open3600,2013-07-01 20:30:00,
2013-07-01 22:46:00,58.3,51.8,30.06,SSW,202,0.0,0.0,79,0.00,,,-99.99,open3600,2013-07-01 20:46:00,
2013-07-01 23:02:00,57.7,51.6,30.06,SSW,202,0.0,0.0,80,0.00,,,-99.99,open3600,2013-07-01 21:02:00,
2013-07-01 23:17:00,57.0,50.9,30.06,SSW,202,0.0,0.0,80,0.00,,,-99.99,open3600,2013-07-01 21:17:00,
2013-07-01 23:33:00,56.1,50.4,30.06,SSW,202,0.0,0.0,81,0.00,,,-99.99,open3600,2013-07-01 21:33:00,
2013-07-01 23:48:00,55.9,50.5,30.06,SSW,202,0.0,0.0,82,0.00,,,-99.99,open3600,2013-07-01 21:48:00,